Flag for Germany Weather past 2 weeks in Bamberg, Bavaria, Germany

Now
68 °F

Overcast.


Feels Like: 68 °F
Forecast: 52 / 71 °F
Wind: 2 mph from West

Location: Bamberg

Current Time: Sep 30, 2014 at 4:17:21 PM

Latest Report: Sep 30, 2014 at 3:00 PM


Visibility: 19 mi

Pressure: 30.27 "Hg

Humidity: 72%

Dew point: 59 °F

Location of BambergLocation

Historic Weather in Bamberg — Graph

°F

Bamberg temperature yesterday

Maximum temperature yesterday: 76 °F (at 3:00 PM)
Minimum temperature yesterday: 45 °F (at 7:00 AM)
Average temperature yesterday: 58 °F

Past Weeks' High & Low Weather Summary

 TemperatureHumidityPressure
High76 °F (Sep 29, 3:00 PM)100% (Sep 15, 9:00 PM)30.40 "Hg (Sep 15, 9:00 PM)
Low37 °F (Sep 24, 2:00 AM)54% (Sep 18, 3:00 PM)29.87 "Hg (Sep 18, 5:00 PM)
Average57 °F89%30.09 "Hg
* Reported Sep 15 3:00 PM — Sep 30 3:00 PM, Bamberg, Weather by CustomWeather, © 2014

Note: Actual official high and low records may vary slightly from our data, if they occured in-between our weather recording intervals... More about our weather records

Advertising

Bamberg weather history for previous 24 hours

 ConditionsComfort  
Time TempWeatherWind HumidityBarometerVisibility
3:00 PM
Sep 30
68 °FOvercast.2 mph72%30.27 "Hg19 mi
2:00 PM68 °FOvercast.2 mph72%30.27 "Hg19 mi
1:00 PM68 °FOvercast.2 mph72%30.27 "Hg19 mi
12:00 PM67 °FOvercast.2 mph78%30.28 "Hg19 mi
11:00 AM65 °FOvercast.2 mph84%30.27 "Hg11 mi
10:00 AM62 °FOvercast.1 mph93%30.27 "Hg8 mi
9:00 AM59 °FOvercast.1 mph99%30.27 "Hg7 mi
8:00 AM58 °FFog.1 mph100%30.27 "Hg4 mi
7:00 AM57 °FFog.1 mph100%30.26 "Hg4 mi
6:00 AM56 °FFog.1 mph100%30.27 "Hg3 mi
5:00 AM56 °FFog.1 mph100%30.27 "Hg4 mi
4:00 AM56 °FFog.1 mph100%30.27 "Hg4 mi
3:00 AM56 °FFog.1 mph100%30.26 "Hg4 mi
2:00 AM56 °FFog.1 mph100%30.26 "Hg4 mi
1:00 AM56 °FOvercast.No wind100%30.27 "Hg6 mi
12:00 AM56 °FFog.1 mph100%30.27 "Hg4 mi
11:00 PM
Sep 29
56 °FOvercast.1 mph100%30.27 "Hg5 mi
10:00 PM56 °FOvercast.1 mph99%30.26 "Hg7 mi
9:00 PM56 °FFog.1 mph99%30.25 "Hg3 mi
8:00 PM59 °FPassing clouds.1 mph98%30.24 "Hg7 mi
7:00 PM63 °FPassing clouds.1 mph93%30.23 "Hg12 mi
6:00 PM70 °FPartly sunny.1 mph76%30.22 "Hg19 mi
5:00 PM74 °FPassing clouds.2 mph56%30.21 "Hg22 mi
4:00 PM74 °FPassing clouds.2 mph54%30.22 "Hg28 mi
Weather by CustomWeather, © 2014

See weather overviewHow to use our weather pages